Location: Columbia
(38.9520°N, 92.3340°W)
Time: 01:12:13
(UTC-05:00)

Tiangong 1 - Visible Passes

Search period start: 25 August 2016 00:00
Search period end: 04 September 2016 00:00
Orbit: 364 x 382 km, 42.8° (Epoch: 24 August)

Date Brightness Start Highest point End Pass type
(mag) Time Alt. Az. Time Alt. Az. Time Alt. Az.
25 Aug 2.3 21:45:49 10° WNW 21:48:24 37° NNW 21:48:24 37° NNW visible
26 Aug 2.2 20:42:27 10° WNW 20:45:22 38° N 20:47:58 12° ENE visible
26 Aug 4.0 22:19:05 10° WNW 22:19:56 17° WNW 22:19:56 17° WNW visible
27 Aug 1.8 21:15:48 10° WNW 21:18:47 44° N 21:19:26 37° NE visible
28 Aug 2.1 20:12:25 10° WNW 20:15:22 38° N 20:18:17 10° ENE visible
28 Aug 2.7 21:48:58 10° WNW 21:50:53 34° WNW 21:50:53 34° WNW visible
29 Aug 1.5 20:45:38 10° WNW 20:48:42 54° NNE 20:50:21 23° E visible
29 Aug 4.5 22:22:15 10° W 22:22:18 10° W 22:22:18 10° W visible
30 Aug 1.1 21:18:45 10° WNW 21:21:46 67° SW 21:21:46 67° SW visible
31 Aug 1.1 20:15:21 10° WNW 20:18:27 71° NNE 20:21:15 12° ESE visible
31 Aug 3.7 21:52:14 10° W 21:53:13 16° WSW 21:53:13 16° WSW visible
01 Sep 1.8 20:48:29 10° W 20:51:28 43° SSW 20:52:43 27° SSE visible
02 Sep 3.5 21:22:24 10° WSW 21:24:12 14° SW 21:24:14 14° SW visible
03 Sep 2.7 20:18:13 10° W 20:20:56 27° SSW 20:23:37 10° SSE visible
